Location: Newark
(42.7133°N, 87.7910°W)
Time: 02:52:56
(UTC+00:00)

A-11 Canister half - Pass Details

Date: 30 September 2019
Orbit: 1527 x 1682 km, 47.3° (Epoch: 15 October)

Event Time Altitude Azimuth Distance (km) Brightness Sun altitude
Exits shadow 10:49:41 10° 285° (WNW) 3,700 10.4 -11.3°
Maximum altitude 10:59:03 70° 10° (N) 1,658 9.2 -9.6°
Drops below altitude 10° 11:08:47 10° 94° (E) 3,838 12.8 -7.9°
Sets 11:11:58 0° 96° (E) 4,844 13.8 -7.3°
